Terminal Aerodrome Forecast
Issued by NWS

Current Version | Previous Version | Graphics & Text | Print | Product List | Glossary On
Versions: 1 2 3 4 5 6 7 8 9 10 11 12 13 14 15 16 17 18 19 20
000
FTUS41 KILN 181600 AAC
TAFLCK
TAF AMD
KLCK 181604Z 1816/1912 03007KT P6SM BKN018 BKN070 OVC080
     FM181800 07006KT P6SM VCSH BKN040
     FM190100 VRB03KT P6SM BKN100=

USA.gov is the U.S. government's official web portal to all federal, state and local government web resources and services.